N510MV KSBY-KILG

Flight info

Callsign N510MV
Flight time 0h 35m
Altitude FL130
Route DCT SMELI DCT ARLET DCT
Aircraft C510/L-VGDW/C

Departure

Time 2026-05-05 05:10
Airport Salisbury Ocean City Wicomico Regional Airport (KSBY)

Arrival

Time 2026-05-05 05:46
Airport Wilmington Airport (KILG)
Time Latitude Longitude Altitude Speed Heading
2026-05-05 04:58 38.33787 -75.51927 42 ft 0 kts 306°
2026-05-05 05:04 38.33825 -75.51926 42 ft 11 kts 41°
2026-05-05 05:05 38.33851 -75.51876 42 ft 5 kts 97°
2026-05-05 05:05 38.33873 -75.51851 42 ft 5 kts 24°
2026-05-05 05:05 38.33921 -75.51805 43 ft 9 kts 35°
2026-05-05 05:05 38.33937 -75.51791 43 ft 0 kts 34°
2026-05-05 05:06 38.33975 -75.51758 44 ft 13 kts 37°
2026-05-05 05:06 38.34052 -75.51681 44 ft 12 kts 36°
2026-05-05 05:06 38.34111 -75.51629 45 ft 9 kts 34°
2026-05-05 05:06 38.34152 -75.51595 45 ft 5 kts 31°
2026-05-05 05:07 38.34161 -75.51589 45 ft 0 kts 21°
2026-05-05 05:07 38.34172 -75.51578 45 ft 6 kts 49°
2026-05-05 05:07 38.34224 -75.51519 45 ft 9 kts 35°
2026-05-05 05:07 38.34275 -75.51474 45 ft 9 kts 33°
2026-05-05 05:08 38.34326 -75.51444 45 ft 9 kts 343°
2026-05-05 05:08 38.34365 -75.51500 45 ft 7 kts 306°
2026-05-05 05:08 38.34402 -75.51560 44 ft 11 kts 306°
2026-05-05 05:08 38.34454 -75.51655 44 ft 14 kts 307°
2026-05-05 05:09 38.34511 -75.51736 44 ft 10 kts
2026-05-05 05:09 38.34559 -75.51698 44 ft 8 kts 37°
2026-05-05 05:09 38.34573 -75.51626 44 ft 0 kts 124°
2026-05-05 05:10 38.34402 -75.51333 45 ft 84 kts 128°
2026-05-05 05:10 38.33961 -75.50556 163 ft 124 kts 128°
2026-05-05 05:10 38.33384 -75.49493 572 ft 161 kts 130°
2026-05-05 05:10 38.32757 -75.48301 1312 ft 168 kts 129°
2026-05-05 05:11 38.32162 -75.46997 2041 ft 175 kts 128°
2026-05-05 05:11 38.31551 -75.45648 2798 ft 178 kts 127°
2026-05-05 05:11 38.31286 -75.44078 3528 ft 192 kts 82°
2026-05-05 05:11 38.31919 -75.42628 4260 ft 192 kts 40°
2026-05-05 05:12 38.32932 -75.41480 4907 ft 198 kts 32°
2026-05-05 05:12 38.34176 -75.40961 5626 ft 188 kts 354°
2026-05-05 05:12 38.35475 -75.40975 6405 ft 186 kts 353°
2026-05-05 05:12 38.36764 -75.41006 7165 ft 185 kts 353°
2026-05-05 05:13 38.38046 -75.41046 7904 ft 184 kts 353°
2026-05-05 05:13 38.39333 -75.41084 8616 ft 183 kts 353°
2026-05-05 05:13 38.40604 -75.41127 9304 ft 184 kts 353°
2026-05-05 05:13 38.41866 -75.41163 9979 ft 181 kts 345°
2026-05-05 05:14 38.43088 -75.41512 10581 ft 184 kts 344°
2026-05-05 05:14 38.44360 -75.41804 11166 ft 187 kts 344°
2026-05-05 05:14 38.45650 -75.42102 11742 ft 190 kts 344°
2026-05-05 05:14 38.46957 -75.42396 12311 ft 192 kts 343°
2026-05-05 05:15 38.48284 -75.42698 12842 ft 196 kts 343°
2026-05-05 05:15 38.49697 -75.43020 12973 ft 213 kts 344°
2026-05-05 05:15 38.51236 -75.43369 12991 ft 230 kts 344°
2026-05-05 05:15 38.52871 -75.43738 12994 ft 245 kts 345°
2026-05-05 05:16 38.54614 -75.44126 12993 ft 257 kts 345°
2026-05-05 05:16 38.56423 -75.44533 12980 ft 266 kts 345°
2026-05-05 05:16 38.58295 -75.44950 12975 ft 273 kts 345°
2026-05-05 05:16 38.60129 -75.45364 12967 ft 278 kts 345°
2026-05-05 05:17 38.62072 -75.45798 12967 ft 282 kts 345°
2026-05-05 05:17 38.64041 -75.46238 12959 ft 280 kts 345°
2026-05-05 05:17 38.65958 -75.46675 12974 ft 277 kts 345°
2026-05-05 05:17 38.67869 -75.47099 13001 ft 274 kts 345°
2026-05-05 05:18 38.69747 -75.47525 13005 ft 272 kts 345°
2026-05-05 05:18 38.71623 -75.47951 13007 ft 271 kts 345°
2026-05-05 05:18 38.73528 -75.48142 13005 ft 277 kts 358°
2026-05-05 05:18 38.75468 -75.47984 13002 ft 275 kts 355°
2026-05-05 05:19 38.77398 -75.47891 13023 ft 275 kts 358°
2026-05-05 05:19 38.79340 -75.47781 13020 ft 275 kts 356°
2026-05-05 05:19 38.81266 -75.47670 13005 ft 276 kts 356°
2026-05-05 05:19 38.83180 -75.47571 13006 ft 276 kts 356°
2026-05-05 05:20 38.85128 -75.47459 13004 ft 276 kts 356°
2026-05-05 05:20 38.87047 -75.47358 12999 ft 276 kts 356°
2026-05-05 05:20 38.88983 -75.47252 12993 ft 277 kts 357°
2026-05-05 05:20 38.90906 -75.47148 12990 ft 277 kts 357°
2026-05-05 05:21 38.92819 -75.47040 12988 ft 277 kts 357°
2026-05-05 05:21 38.94745 -75.46933 12985 ft 277 kts 356°
2026-05-05 05:21 38.96686 -75.46824 12978 ft 276 kts 356°
2026-05-05 05:21 38.98633 -75.46717 12980 ft 276 kts 356°
2026-05-05 05:22 39.00598 -75.46611 12642 ft 278 kts 356°
2026-05-05 05:22 39.02519 -75.46504 12268 ft 275 kts 356°
2026-05-05 05:22 39.04431 -75.46399 11903 ft 272 kts 356°
2026-05-05 05:22 39.06322 -75.46297 11546 ft 269 kts 356°
2026-05-05 05:23 39.08212 -75.46193 11192 ft 267 kts 356°
2026-05-05 05:23 39.10025 -75.46091 10851 ft 265 kts 356°
2026-05-05 05:23 39.11840 -75.45988 10513 ft 264 kts 356°
2026-05-05 05:23 39.13689 -75.45888 10167 ft 263 kts 357°
2026-05-05 05:24 39.15528 -75.45784 9830 ft 262 kts 356°
2026-05-05 05:24 39.17361 -75.45681 9534 ft 259 kts 356°
2026-05-05 05:24 39.19145 -75.45583 9240 ft 257 kts 356°
2026-05-05 05:24 39.20958 -75.45481 8947 ft 256 kts 356°
2026-05-05 05:25 39.22750 -75.45383 8680 ft 256 kts 356°
2026-05-05 05:25 39.24479 -75.45389 8400 ft 251 kts 345°
2026-05-05 05:25 39.26098 -75.45980 8128 ft 247 kts 339°
2026-05-05 05:25 39.27730 -75.46513 7858 ft 247 kts 339°
2026-05-05 05:26 39.29280 -75.47047 7584 ft 246 kts 340°
2026-05-05 05:26 39.30945 -75.47622 7286 ft 243 kts 339°
2026-05-05 05:26 39.32558 -75.48188 6994 ft 240 kts 339°
2026-05-05 05:26 39.34174 -75.48761 6694 ft 239 kts 339°
2026-05-05 05:27 39.35769 -75.49322 6401 ft 238 kts 339°
2026-05-05 05:27 39.37277 -75.49857 6118 ft 237 kts 338°
2026-05-05 05:27 39.40231 -75.50900 5569 ft 237 kts 338°
2026-05-05 05:28 39.41670 -75.51411 5302 ft 237 kts 338°
2026-05-05 05:28 39.43270 -75.51976 5006 ft 237 kts 338°
2026-05-05 05:28 39.44847 -75.52536 4712 ft 237 kts 338°
2026-05-05 05:28 39.46457 -75.53108 4411 ft 237 kts 338°
2026-05-05 05:29 39.48047 -75.53673 4112 ft 238 kts 338°
2026-05-05 05:29 39.49634 -75.54231 3977 ft 231 kts 337°
2026-05-05 05:29 39.51148 -75.54767 3959 ft 221 kts 337°
2026-05-05 05:29 39.52599 -75.55282 3955 ft 212 kts 336°
2026-05-05 05:30 39.54015 -75.55784 3954 ft 206 kts 336°
2026-05-05 05:30 39.55380 -75.56273 3960 ft 204 kts 336°
2026-05-05 05:30 39.56745 -75.56761 3957 ft 202 kts 336°
2026-05-05 05:30 39.58107 -75.57246 3964 ft 200 kts 336°
2026-05-05 05:31 39.59445 -75.57723 3963 ft 200 kts 336°
2026-05-05 05:31 39.60789 -75.58201 3963 ft 199 kts 336°
2026-05-05 05:31 39.62101 -75.58669 3968 ft 199 kts 336°
2026-05-05 05:31 39.63441 -75.59148 3969 ft 198 kts 336°
2026-05-05 05:32 39.64787 -75.59627 3969 ft 198 kts 336°
2026-05-05 05:32 39.66129 -75.60106 3894 ft 202 kts 336°
2026-05-05 05:32 39.67490 -75.60583 3694 ft 201 kts 339°
2026-05-05 05:32 39.68889 -75.60594 3500 ft 208 kts 360°
2026-05-05 05:33 39.70351 -75.60372 3301 ft 206 kts 358°
2026-05-05 05:33 39.71787 -75.60173 3103 ft 206 kts 358°
2026-05-05 05:33 39.73226 -75.59976 2904 ft 205 kts 359°
2026-05-05 05:33 39.74639 -75.59780 2702 ft 200 kts 358°
2026-05-05 05:34 39.76006 -75.59591 2495 ft 193 kts 358°
2026-05-05 05:34 39.77336 -75.59410 2289 ft 188 kts 358°
2026-05-05 05:34 39.78629 -75.59233 2083 ft 183 kts 358°
2026-05-05 05:34 39.79873 -75.59062 1968 ft 173 kts 358°
2026-05-05 05:35 39.81021 -75.58899 1939 ft 156 kts 357°
2026-05-05 05:35 39.82075 -75.58754 1945 ft 153 kts 355°
2026-05-05 05:35 39.83225 -75.58620 1992 ft 181 kts 357°
2026-05-05 05:35 39.84558 -75.58452 1990 ft 198 kts 358°
2026-05-05 05:36 39.85969 -75.58252 1974 ft 203 kts 359°
2026-05-05 05:36 39.87366 -75.58051 1956 ft 194 kts 360°
2026-05-05 05:36 39.88682 -75.58005 1953 ft 178 kts 338°
2026-05-05 05:36 39.89743 -75.58719 1970 ft 168 kts 318°
2026-05-05 05:37 39.90749 -75.59552 1960 ft 169 kts 318°
2026-05-05 05:37 39.91744 -75.60376 1957 ft 169 kts 318°
2026-05-05 05:37 39.92740 -75.61203 1961 ft 168 kts 318°
2026-05-05 05:37 39.93734 -75.62015 1961 ft 170 kts 325°
2026-05-05 05:38 39.94951 -75.62154 1967 ft 186 kts 11°
2026-05-05 05:38 39.95997 -75.61146 1969 ft 192 kts 57°
2026-05-05 05:38 39.96308 -75.59490 1973 ft 186 kts 104°
2026-05-05 05:38 39.95748 -75.58080 1981 ft 172 kts 149°
2026-05-05 05:39 39.94667 -75.57604 1989 ft 159 kts 186°
2026-05-05 05:39 39.93549 -75.57610 1968 ft 163 kts 187°
2026-05-05 05:39 39.92408 -75.57612 2073 ft 159 kts 186°
2026-05-05 05:39 39.91312 -75.57637 2168 ft 155 kts 189°
2026-05-05 05:40 39.90228 -75.57730 2040 ft 165 kts 191°
2026-05-05 05:40 39.89064 -75.57846 1975 ft 164 kts 191°
2026-05-05 05:40 39.87953 -75.57961 1952 ft 153 kts 191°
2026-05-05 05:40 39.86887 -75.58082 1950 ft 150 kts 192°
2026-05-05 05:41 39.85857 -75.58201 1929 ft 149 kts 192°
2026-05-05 05:41 39.84813 -75.58321 1865 ft 147 kts 192°
2026-05-05 05:41 39.83808 -75.58433 1851 ft 140 kts 192°
2026-05-05 05:41 39.82789 -75.58560 1871 ft 153 kts 192°
2026-05-05 05:42 39.81709 -75.58682 1862 ft 149 kts 192°
2026-05-05 05:42 39.80773 -75.58782 1880 ft 139 kts 193°
2026-05-05 05:42 39.79824 -75.58893 1860 ft 135 kts 193°
2026-05-05 05:42 39.78883 -75.59004 1869 ft 136 kts 193°
2026-05-05 05:43 39.78021 -75.59098 1858 ft 116 kts 193°
2026-05-05 05:43 39.77238 -75.59194 1857 ft 109 kts 195°
2026-05-05 05:43 39.76469 -75.59289 1712 ft 113 kts 194°
2026-05-05 05:43 39.75663 -75.59349 1509 ft 118 kts 189°
2026-05-05 05:44 39.74868 -75.59394 1383 ft 109 kts 193°
2026-05-05 05:44 39.74137 -75.59499 1137 ft 107 kts 193°
2026-05-05 05:44 39.73399 -75.59621 907 ft 110 kts 191°
2026-05-05 05:44 39.72631 -75.59717 782 ft 111 kts 189°
2026-05-05 05:45 39.71858 -75.59810 663 ft 107 kts 187°
2026-05-05 05:45 39.71104 -75.59875 551 ft 109 kts 187°
2026-05-05 05:45 39.70340 -75.59975 407 ft 110 kts 188°
2026-05-05 05:45 39.69603 -75.60063 246 ft 103 kts 185°
2026-05-05 05:46 39.68891 -75.60158 93 ft 105 kts 184°
2026-05-05 05:46 39.68241 -75.60228 59 ft 64 kts 185°
2026-05-05 05:46 39.68059 -75.60252 62 ft 15 kts 185°
2026-05-05 05:46 39.67970 -75.60263 64 ft 15 kts 185°
2026-05-05 05:47 39.67840 -75.60277 66 ft 22 kts 185°
2026-05-05 05:47 39.67709 -75.60294 68 ft 15 kts 185°
2026-05-05 05:47 39.67606 -75.60306 69 ft 19 kts 185°
2026-05-05 05:47 39.67524 -75.60313 69 ft 13 kts 178°
2026-05-05 05:48 39.67487 -75.60288 69 ft 5 kts 96°
2026-05-05 05:48 39.67484 -75.60233 69 ft 9 kts 92°
2026-05-05 05:48 39.67467 -75.60180 69 ft 8 kts 177°
2026-05-05 05:48 39.67383 -75.60187 68 ft 13 kts 184°
2026-05-05 05:49 39.67343 -75.60157 68 ft 7 kts 76°
2026-05-05 05:49 39.67351 -75.60128 68 ft 7 kts 95°
2026-05-05 05:49 39.67335 -75.60084 68 ft 4 kts 118°
2026-05-05 05:49 39.67307 -75.60042 67 ft 7 kts 171°
2026-05-05 05:50 39.67274 -75.60056 66 ft 3 kts 169°
2026-05-05 05:50 39.67259 -75.60039 66 ft 0 kts 132°